Regional Weather Roundup
Issued by NWS

Home | Current Version | Previous Version | Text Only | Print | Product List | Glossary On
Versions: 1 2 3 4 5 6 7 8 9 10 11 12 13 14 15 16 17 18 19 20 21 22 23 24 25 26 27 28 29 30 31 32 33 34 35 36 37 38 39 40 41 42 43 44 45 46 47 48 49 50
000
ASUS44 KFWD 051503
RWRTX
NORTH TEXAS HOURLY WEATHER ROUNDUP
NATIONAL WEATHER SERVICE FORT WORTH TX
1000 AM CDT THU MAY 05 2016

NOTE: "FAIR" INDICATES FEW OR NO CLOUDS BELOW 12,000 FEET WITH NO
SIGNIFICANT WEATHER AND/OR OBSTRUCTIONS TO VISIBILITY.

TXZ118-119-051600-
DALLAS/FORT WORTH METROPLEX

CITY           SKY/WX    TMP DP  RH WIND       PRES   REMARKS
DFW AIRPORT    MOSUNNY   72  47  40 CALM      30.10R
DALLAS LOVE    MOSUNNY   74  44  34 VRB3      30.10R
FTW MEACHAM    SUNNY     73  45  36 CALM      30.11R
DAL-EXECUTIVE  SUNNY     73  45  36 E6        30.10R
FTW-ALLIANCE   MOSUNNY   71  49  45 CALM      30.11R
FTW-NAS-JRB    SUNNY     70  52  52 CALM      30.12R
FTW-SPINKS     SUNNY     70  52  52 CALM      30.13R
ARLINGTON      SUNNY     74  46  36 CALM      30.11R
GRAND PRAIRIE  SUNNY     72  46  40 CALM      30.12R
ADDISON        SUNNY     72  45  37 CALM      30.11R
MESQUITE       SUNNY     68  52  56 N5        30.10R
LANCASTER      SUNNY     71  40  32 CALM      30.11R
$$

TXZ091>094-102>105-117-120-121-131>134-051600-
NORTH CENTRAL TEXAS

CITY           SKY/WX    TMP DP  RH WIND       PRES   REMARKS
SHRMAN/DENISON SUNNY     65  46  51 CALM      30.13R
GAINESVILLE    SUNNY     68  48  48 CALM      30.14R
BOWIE          SUNNY     70  47  43 CALM      30.12S
BRIDGEPORT     SUNNY     71  47  42 SE3       30.14R
DECATUR        SUNNY     70  43  36 CALM      30.12S
DENTON         SUNNY     70  48  45 VRB5      30.11R
MCKINNEY       SUNNY     69  53  56 CALM      30.11R
GREENVILLE     SUNNY     68  50  52 CALM      30.10S
TERRELL        SUNNY     71  48  43 NE5       30.10R
WAXAHACHIE     SUNNY     71  48  43 CALM      30.12R
CLEBURNE       SUNNY     72  48  43 CALM      30.13R
GRANBURY       SUNNY     70  52  51 CALM      30.13S
$$

TXZ083>090-098>101-113>116-127>130-139>142-154-155-051600-
WESTERN NORTH TEXAS

CITY           SKY/WX    TMP DP  RH WIND       PRES   REMARKS
WICHITA FALLS  SUNNY     70  50  49 E5        30.12S
WF-KICKAPOO    SUNNY     72  45  38 CALM      30.14S
VERNON         SUNNY     70  44  37 E5        30.14R
ABILENE        SUNNY     71  50  47 VRB5      30.14R
ABILENE-DYESS  SUNNY     68  51  54 NE5       30.12S
BRECKENRIDGE   SUNNY     72  54  51 CALM      30.12F
GRAHAM         SUNNY     72  52  49 CALM      30.12R
MINERAL WELLS  SUNNY     70  48  45 SE5       30.11R
STEPHENVILLE   SUNNY     72  47  40 CALM      30.16R
COMANCHE       SUNNY     70  55  57 N3        30.14S
BROWNWOOD      SUNNY     70  52  52 E7        30.13S
$$

TXZ143>147-156>162-174-175-051600-
CENTRAL TEXAS

CITY           SKY/WX    TMP DP  RH WIND       PRES   REMARKS
WACO           SUNNY     72  54  53 N6        30.10R
WACO-TSTC      SUNNY     72  54  53 CALM      30.11R
WACO-MCGREGOR  SUNNY     71  54  54 NE6       30.11R
HILLSBORO      SUNNY     72  48  42 E6        30.11R
CORSICANA      SUNNY     73  50  44 N5        30.11R
MEXIA          SUNNY     71  49  46 NE5       30.09R
HEARNE         SUNNY     74  51  45 CALM      30.08S
TEMPLE         SUNNY     73  53  49 NE7       30.10R
KILLEEN        SUNNY     71  51  48 VRB6      30.10R
KILLEEN-SKYLRK SUNNY     73  51  46 NE7       30.11R
FORT HOOD      SUNNY     71  52  51 NE5       30.09R
HAMILTON       SUNNY     73  48  42 E6        30.14R
LAMPASAS       SUNNY     72  55  54 NE3       30.11S
$$

TXZ095>097-106>112-122>126-135>138-148>153-164>167-051600-
EAST TEXAS

CITY           SKY/WX    TMP DP  RH WIND       PRES   REMARKS
PARIS          SUNNY     68  45  42 NW5       30.10R
MOUNT PLEASANT SUNNY     70  47  44 NW6       30.10R
GILMER         SUNNY     68  46  45 NW5       30.08R
MINEOLA        SUNNY     70  52  52 NW5       30.10R
TYLER          SUNNY     72  47  40 NE6       30.08R
LONGVIEW       SUNNY     70  50  49 N5        30.06R
MARSHALL       SUNNY     70  48  45 N7        30.08S
ATHENS         SUNNY     70  43  37 N5        30.08R
PALESTINE      SUNNY     72  47  41 NE6       30.09R
JACKSONVILLE   SUNNY     68  48  48 N5        30.10R
HENDERSON      SUNNY     70  47  43 NE3       30.08S
CENTER         FAIR      72  50  45 NE3       30.05R
NACOGDOCHES    SUNNY     70  46  43 NE6       30.06R
LUFKIN         SUNNY     72  47  40 VRB6      30.06R
$$

SUPPLEMENTAL OBSERVATIONS (CENTRAL)

CITY           SKY/WX    TMP DP  RH WIND       PRES   REMARKS
$$

SUPPLEMENTAL OBSERVATIONS (WEST)

CITY           SKY/WX    TMP DP  RH WIND       PRES   REMARKS
$$

SUPPLEMENTAL OBSERVATIONS (EAST)

CITY           SKY/WX    TMP DP  RH WIND       PRES   REMARKS
$$

SUPPLEMENTAL OBSERVATIONS ARE A COLLECTION OF AUTOMATED INSTRUMENTS
THAT ARE MAINTAINED BY A VARIETY OF FEDERAL AND STATE AGENCIES.
CERTAIN ELEMENTS...SUCH AS HUMIDITY VALUES AND SUSTAINED WIND
SPEEDS...MAY BE APPROXIMATED.





USA.gov is the U.S. government's official web portal to all federal, state and local government web resources and services.